Regional Weather Roundup
Issued by NWS Cleveland, OH

Home | Current Version | Previous Version | Graphics & Text | Print | Product List | Glossary On
Versions: 1 2 3 4 5 6 7 8 9 10 11 12 13 14 15 16 17 18 19 20 21 22 23 24 25 26 27 28 29 30 31 32 33 34 35 36 37 38 39 40 41 42 43 44 45 46 47 48 49 50
325
ASUS41 KCLE 261110
RWRCLE
OHIO REGIONAL WEATHER ROUNDUP
NATIONAL WEATHER SERVICE WILMINGTON, OH
700 AM EDT SAT MAY 26 2018

NOTE: "FAIR" INDICATES FEW OR NO CLOUDS BELOW 12,000 FEET WITH NO
SIGNIFICANT WEATHER AND/OR OBSTRUCTIONS TO VISIBILITY.

OHZ001>008-015>018-024>027-034-035-043-044-261200-
   NORTHWEST OHIO

CITY           SKY/WX    TMP DP  RH WIND       PRES   REMARKS
DEFIANCE       CLOUDY    69  61  75 SW5       29.81R
FINDLAY        CLOUDY    70  61  73 S5        29.82R
TOLEDO EXPRESS FAIR      66  62  87 CALM      29.79S
TOLEDO EXEC    FAIR      70  59  68 SW5       29.81R
LIMA           CLOUDY    70  60  70 S8        29.84R
$$

OHZ009>014-019>023-028>033-038-089-261200-
   NORTHEAST OHIO

CITY           SKY/WX    TMP DP  RH WIND       PRES   REMARKS
CLE-HOPKINS    MOCLDY    69  56  62 SW7       29.84R
CLE-LAKEFRONT  FAIR      73  55  53 S10       29.80R
CUY CO. ARPT   PTCLDY    73  57  56 SW8       29.84
LORAIN-ELYRIA  FAIR      63  53  70 VRB6      29.83R
ASHTABULA      FAIR      62  57  83 CALM      29.84R
AKRON-CANTON   MOCLDY    64  57  78 S5        29.87R
WOOSTER        FAIR      61  57  87 CALM      29.87R
MANSFIELD      FAIR      67  59  75 S6        29.86R
YOUNGSTOWN     PTSUNNY   65  58  78 SW3       29.86R
$$

OHZ042-051>053-060>062-070>072-077>081-261200-
  SOUTHWEST OHIO

CITY           SKY/WX    TMP DP  RH WIND       PRES   REMARKS
CINC-COVINGTON MOCLDY    67  62  84 S7        29.87R
CINC-LUNKEN    MOCLDY    65  65 100 CALM      29.87R
HAMILTON       FAIR      67  66  97 CALM      29.86R
DAYTON         MOCLDY    70  62  76 S7        29.87R
WRIGHT-PAT AFB MOCLDY    68  60  75 CALM      29.86R
DAYTON GENERAL FAIR      69  60  73 S5        29.86R
WILMINGTON     CLOUDY    64  63  96 S3        29.87R
$$

OHZ036-037-039>041-045>050-054>059-063>069-073>076-082>088-261200-
  CENTRAL AND SOUTHEAST OHIO

CITY           SKY/WX    TMP DP  RH WIND       PRES   REMARKS
COLUMBUS       FAIR      66  59  78 SE5       29.85S
OSU AIRPORT    FAIR      64  59  83 CALM      29.86R
BOLTON FIELD   FAIR      64  60  89 CALM      29.87R
RICKENBACK AFB MOCLDY    63  62  95 MISG      29.86R
NEWARK         FAIR      60  58  92 CALM      29.87R
MARION         MOCLDY    65  58  78 S6        29.86R
LANCASTER      FAIR      62  62 100 CALM      29.87R FOG
ZANESVILLE     FAIR      63  62  97 CALM      29.87R
NEW PHILLY     FAIR      62  60  93 SE5       29.87R FOG
$$




USA.gov is the U.S. government's official web portal to all federal, state and local government web resources and services.